�������l�o���
Date,Time,MP-1(��Sv/h),MP-2(��Sv/h),MP-3(��Sv/h),MP-4(��Sv/h),MP-5(��Sv/h),MP-6(��Sv/h),MP-7(��Sv/h),����,����(m/s),���J
2021/03/20,00:00,0.176,0.155,0.257,0.243,0.238,0.136,0.083,���쐼,0.6,��
2021/03/20,00:10,0.175,0.156,0.256,0.242,0.237,0.136,0.084,-,CALM,��
2021/03/20,00:20,0.175,0.156,0.256,0.242,0.238,0.136,0.084,���k��,0.8,��
2021/03/20,00:30,0.177,0.156,0.255,0.241,0.237,0.138,0.084,��,0.7,��
2021/03/20,00:40,0.175,0.157,0.257,0.242,0.238,0.137,0.084,���k��,0.7,��
2021/03/20,00:50,0.175,0.156,0.257,0.241,0.238,0.137,0.084,���k��,0.9,��
2021/03/20,01:00,0.175,0.157,0.256,0.242,0.238,0.137,0.084,�k��,0.7,��
2021/03/20,01:10,0.176,0.157,0.257,0.243,0.238,0.137,0.083,�k�k��,1.4,��
2021/03/20,01:20,0.176,0.158,0.256,0.242,0.239,0.138,0.085,�k�k��,2.8,��
2021/03/20,01:30,0.176,0.157,0.258,0.243,0.239,0.138,0.085,�k�k��,3.3,��
2021/03/20,01:40,0.176,0.157,0.257,0.244,0.240,0.138,0.085,�k,5.2,��
2021/03/20,01:50,0.176,0.159,0.257,0.242,0.240,0.138,0.085,�k,5.5,��
2021/03/20,02:00,0.175,0.157,0.257,0.243,0.238,0.138,0.085,�k,5.0,��
2021/03/20,02:10,0.177,0.157,0.258,0.242,0.239,0.137,0.085,�k�k��,5.1,��
2021/03/20,02:20,0.176,0.158,0.257,0.244,0.240,0.138,0.085,�k�k��,4.5,��
2021/03/20,02:30,0.176,0.158,0.256,0.244,0.239,0.137,0.085,�k�k��,4.5,��
2021/03/20,02:40,0.176,0.157,0.257,0.243,0.239,0.138,0.085,�k�k��,4.8,��
2021/03/20,02:50,0.176,0.156,0.258,0.243,0.239,0.139,0.086,�k�k��,5.0,��
2021/03/20,03:00,0.176,0.158,0.257,0.243,0.237,0.138,0.085,�k�k��,5.1,��
2021/03/20,03:10,0.176,0.157,0.256,0.243,0.238,0.138,0.084,�k�k��,5.6,��
2021/03/20,03:20,0.177,0.156,0.258,0.244,0.240,0.137,0.084,�k�k��,5.8,��
2021/03/20,03:30,0.177,0.157,0.258,0.242,0.237,0.138,0.085,�k�k��,5.4,��
2021/03/20,03:40,0.176,0.157,0.258,0.242,0.238,0.138,0.084,�k�k��,5.3,��
2021/03/20,03:50,0.175,0.157,0.256,0.244,0.239,0.138,0.085,�k�k��,5.1,��
2021/03/20,04:00,0.176,0.156,0.257,0.243,0.237,0.138,0.084,�k�k��,5.1,��
2021/03/20,04:10,0.176,0.156,0.257,0.242,0.238,0.137,0.084,�k�k��,5.2,��
2021/03/20,04:20,0.176,0.157,0.257,0.243,0.239,0.137,0.084,�k�k��,5.1,��
2021/03/20,04:30,0.176,0.156,0.257,0.242,0.238,0.138,0.083,�k�k��,5.2,��
2021/03/20,04:40,0.175,0.157,0.257,0.242,0.238,0.137,0.084,�k�k��,5.5,��
2021/03/20,04:50,0.175,0.157,0.257,0.242,0.239,0.137,0.083,�k�k��,5.2,��
2021/03/20,05:00,0.176,0.156,0.257,0.244,0.239,0.137,0.084,�k�k��,5.3,��
2021/03/20,05:10,0.176,0.156,0.257,0.241,0.238,0.136,0.084,�k�k��,5.1,��
2021/03/20,05:20,0.175,0.157,0.257,0.242,0.237,0.138,0.084,�k��,5.1,��
2021/03/20,05:30,0.177,0.157,0.258,0.244,0.239,0.137,0.084,�k�k��,5.2,��
2021/03/20,05:40,0.177,0.156,0.256,0.242,0.238,0.137,0.084,�k�k��,5.4,��
2021/03/20,05:50,0.174,0.157,0.257,0.242,0.237,0.138,0.084,�k�k��,5.2,��
2021/03/20,06:00,0.176,0.156,0.257,0.243,0.237,0.137,0.084,�k�k��,4.7,��
2021/03/20,06:10,0.176,0.157,0.258,0.243,0.238,0.138,0.084,�k�k��,4.7,��
2021/03/20,06:20,0.175,0.156,0.257,0.242,0.237,0.137,0.084,�k�k��,5.0,��
2021/03/20,06:30,0.175,0.157,0.255,0.243,0.239,0.138,0.084,�k�k��,5.3,��
2021/03/20,06:40,0.177,0.157,0.257,0.243,0.237,0.138,0.085,�k�k��,5.0,��
2021/03/20,06:50,0.175,0.157,0.257,0.241,0.238,0.138,0.084,�k�k��,4.6,��
2021/03/20,07:00,0.176,0.158,0.257,0.242,0.239,0.137,0.084,�k�k��,4.4,��
2021/03/20,07:10,0.176,0.157,0.258,0.241,0.238,0.137,0.084,�k��,4.2,��
2021/03/20,07:20,0.175,0.157,0.256,0.242,0.237,0.137,0.084,�k�k��,3.7,��
2021/03/20,07:30,0.175,0.157,0.258,0.242,0.239,0.137,0.084,�k��,3.2,��
2021/03/20,07:40,0.176,0.157,0.256,0.242,0.237,0.137,0.084,�k�k��,3.0,��
2021/03/20,07:50,0.176,0.156,0.256,0.242,0.237,0.137,0.084,�k��,2.6,��
2021/03/20,08:00,0.175,0.157,0.257,0.242,0.239,0.137,0.083,�k��,2.5,��
2021/03/20,08:10,0.175,0.157,0.257,0.242,0.236,0.137,0.084,�k��,2.8,��
2021/03/20,08:20,0.176,0.156,0.255,0.241,0.237,0.136,0.084,���k��,2.4,��
2021/03/20,08:30,0.175,0.157,0.257,0.241,0.238,0.137,0.084,�k��,2.4,��
2021/03/20,08:40,0.175,0.156,0.257,0.242,0.238,0.137,0.084,�k�k��,2.4,��
2021/03/20,08:50,0.176,0.156,0.256,0.242,0.239,0.136,0.084,�k��,2.7,��
2021/03/20,09:00,0.175,0.156,0.257,0.242,0.238,0.138,0.085,�k�k��,2.6,��
2021/03/20,09:10,0.175,0.157,0.257,0.242,0.237,0.138,0.084,�k�k��,2.7,��
2021/03/20,09:20,0.175,0.156,0.257,0.242,0.239,0.138,0.084,�k,2.6,��
2021/03/20,09:30,0.176,0.156,0.256,0.242,0.238,0.138,0.084,�k,3.1,��
2021/03/20,09:40,0.175,0.155,0.257,0.242,0.238,0.137,0.084,�k,3.9,��
2021/03/20,09:50,0.175,0.155,0.256,0.242,0.239,0.137,0.084,�k�k��,4.6,��
2021/03/20,10:00,0.175,0.157,0.256,0.243,0.238,0.137,0.083,�k,4.2,��
2021/03/20,10:10,0.175,0.156,0.257,0.242,0.239,0.137,0.084,�k,4.6,��
2021/03/20,10:20,0.175,0.156,0.257,0.242,0.238,0.137,0.084,�k,4.6,��
2021/03/20,10:30,0.174,0.157,0.256,0.242,0.239,0.137,0.084,�k,4.8,��
2021/03/20,10:40,0.175,0.156,0.256,0.241,0.238,0.138,0.084,�k,5.1,��
2021/03/20,10:50,0.176,0.155,0.257,0.242,0.238,0.138,0.085,�k,5.5,��
2021/03/20,11:00,0.174,0.157,0.256,0.242,0.240,0.138,0.084,�k,5.7,��
2021/03/20,11:10,0.176,0.157,0.256,0.241,0.238,0.138,0.084,�k,4.4,��
2021/03/20,11:20,0.176,0.156,0.258,0.242,0.238,0.137,0.084,�k,4.7,��
2021/03/20,11:30,0.176,0.157,0.257,0.243,0.239,0.137,0.084,�k,4.9,��
2021/03/20,11:40,0.174,0.158,0.257,0.242,0.239,0.137,0.084,�k,5.1,��
2021/03/20,11:50,0.176,0.157,0.258,0.242,0.239,0.137,0.084,�k,5.8,��
2021/03/20,12:00,0.175,0.157,0.257,0.244,0.237,0.137,0.084,�k,4.6,��
2021/03/20,12:10,0.175,0.157,0.257,0.243,0.237,0.137,0.083,�k,3.4,��
2021/03/20,12:20,0.175,0.156,0.258,0.242,0.238,0.137,0.084,�k,3.7,��
2021/03/20,12:30,0.176,0.156,0.257,0.242,0.238,0.138,0.084,�k,4.4,��
2021/03/20,12:40,0.175,0.157,0.257,0.241,0.238,0.138,0.084,�k,3.6,��
2021/03/20,12:50,0.176,0.157,0.256,0.243,0.239,0.138,0.085,�k�k��,4.2,��
2021/03/20,13:00,0.176,0.156,0.257,0.242,0.238,0.137,0.083,�k,4.2,��
2021/03/20,13:10,0.175,0.157,0.257,0.242,0.239,0.137,0.084,�k�k��,4.8,��
2021/03/20,13:20,0.176,0.156,0.256,0.243,0.238,0.137,0.084,�k�k��,3.9,��
2021/03/20,13:30,0.175,0.157,0.257,0.242,0.237,0.137,0.084,�k�k��,4.5,��
2021/03/20,13:40,0.175,0.157,0.257,0.242,0.239,0.138,0.084,�k�k��,3.7,��
2021/03/20,13:50,0.176,0.157,0.257,0.242,0.239,0.138,0.084,�k�k��,4.9,��
2021/03/20,14:00,0.177,0.157,0.256,0.243,0.240,0.137,0.084,�k�k��,5.0,��
2021/03/20,14:10,0.175,0.157,0.257,0.243,0.238,0.138,0.084,�k��,4.4,��
2021/03/20,14:20,0.175,0.157,0.257,0.244,0.237,0.136,0.083,�k�k��,4.7,��
2021/03/20,14:30,0.176,0.157,0.256,0.242,0.238,0.137,0.084,�k�k��,4.7,��
2021/03/20,14:40,0.175,0.156,0.257,0.242,0.238,0.136,0.083,�k�k��,3.9,��
2021/03/20,14:50,0.175,0.156,0.258,0.244,0.236,0.137,0.084,�k�k��,4.8,��
2021/03/20,15:00,0.175,0.156,0.257,0.242,0.238,0.138,0.083,�k�k��,4.4,��
2021/03/20,15:10,0.174,0.157,0.256,0.242,0.238,0.137,0.084,�k��,3.5,��
2021/03/20,15:20,0.176,0.157,0.258,0.243,0.238,0.138,0.084,�k�k��,4.7,��
2021/03/20,15:30,0.175,0.157,0.256,0.242,0.237,0.137,0.084,�k��,4.7,��
2021/03/20,15:40,0.175,0.157,0.256,0.242,0.238,0.137,0.084,�k�k��,4.7,��
2021/03/20,15:50,0.175,0.156,0.257,0.243,0.239,0.137,0.085,�k�k��,5.2,��
2021/03/20,16:00,0.174,0.157,0.257,0.242,0.237,0.137,0.084,�k��,5.2,��
2021/03/20,16:10,0.176,0.157,0.257,0.243,0.238,0.136,0.084,�k�k��,5.0,��
2021/03/20,16:20,0.175,0.157,0.258,0.243,0.239,0.137,0.084,�k�k��,4.4,��
2021/03/20,16:30,0.176,0.157,0.259,0.241,0.238,0.137,0.083,�k�k��,3.7,��
2021/03/20,16:40,0.176,0.157,0.256,0.243,0.238,0.138,0.084,�k�k��,3.6,��
2021/03/20,16:50,0.176,0.156,0.257,0.242,0.238,0.138,0.084,�k�k��,5.6,��
2021/03/20,17:00,0.175,0.156,0.257,0.242,0.239,0.138,0.083,�k�k��,5.0,��
2021/03/20,17:10,0.176,0.156,0.256,0.242,0.239,0.137,0.084,�k�k��,4.7,��
2021/03/20,17:20,0.175,0.157,0.257,0.242,0.238,0.137,0.084,�k�k��,5.0,��
2021/03/20,17:30,0.176,0.157,0.258,0.242,0.238,0.138,0.083,�k�k��,4.9,��
2021/03/20,17:40,0.176,0.157,0.258,0.243,0.239,0.138,0.084,�k�k��,5.6,��
2021/03/20,17:50,0.176,0.156,0.257,0.241,0.237,0.138,0.085,�k�k��,5.6,��
2021/03/20,18:00,0.175,0.156,0.257,0.243,0.239,0.139,0.084,�k�k��,6.0,��
2021/03/20,18:10,0.175,0.156,0.257,0.244,0.238,0.138,0.085,�k��,5.4,��
2021/03/20,18:20,0.175,0.157,0.257,0.242,0.238,0.137,0.084,�k�k��,5.9,��
2021/03/20,18:30,0.176,0.157,0.257,0.242,0.239,0.138,0.084,�k�k��,5.9,��
2021/03/20,18:40,0.175,0.156,0.258,0.243,0.237,0.137,0.084,�k�k��,5.8,�L
2021/03/20,18:50,0.176,0.158,0.257,0.243,0.238,0.137,0.084,�k�k��,6.2,�L
2021/03/20,19:00,0.176,0.158,0.256,0.242,0.239,0.138,0.084,�k�k��,5.9,�L
2021/03/20,19:10,0.175,0.157,0.257,0.243,0.238,0.138,0.084,�k�k��,5.9,��
2021/03/20,19:20,0.176,0.157,0.258,0.243,0.238,0.138,0.085,�k�k��,5.6,��
2021/03/20,19:30,0.176,0.157,0.258,0.242,0.239,0.138,0.084,�k�k��,6.1,��
2021/03/20,19:40,0.176,0.157,0.257,0.244,0.236,0.138,0.083,�k�k��,5.2,��
2021/03/20,19:50,0.177,0.157,0.256,0.243,0.237,0.138,0.084,�k�k��,4.0,��
2021/03/20,20:00,0.175,0.157,0.258,0.242,0.239,0.137,0.084,�k�k��,4.3,��
2021/03/20,20:10,0.176,0.157,0.258,0.241,0.238,0.137,0.085,�k�k��,4.9,��
2021/03/20,20:20,0.175,0.157,0.257,0.243,0.237,0.137,0.084,�k�k��,4.0,��
2021/03/20,20:30,0.175,0.156,0.259,0.242,0.239,0.137,0.084,�k�k��,4.1,��
2021/03/20,20:40,0.176,0.157,0.256,0.241,0.237,0.137,0.085,�k,3.7,��
2021/03/20,20:50,0.175,0.157,0.256,0.243,0.237,0.137,0.084,�k�k��,3.6,��
2021/03/20,21:00,0.175,0.157,0.257,0.242,0.238,0.137,0.085,�k�k��,3.9,��
2021/03/20,21:10,0.176,0.156,0.257,0.241,0.238,0.137,0.084,�k�k��,4.4,�L
2021/03/20,21:20,0.176,0.158,0.257,0.242,0.239,0.137,0.084,�k�k��,3.8,�L
2021/03/20,21:30,0.176,0.157,0.257,0.243,0.239,0.140,0.086,�k�k��,4.1,�L
2021/03/20,21:40,0.178,0.159,0.259,0.245,0.241,0.141,0.089,�k�k��,3.0,�L
2021/03/20,21:50,0.180,0.161,0.260,0.246,0.241,0.144,0.089,�k,3.0,�L
2021/03/20,22:00,0.178,0.161,0.260,0.246,0.242,0.143,0.090,�k,2.9,�L
2021/03/20,22:10,0.181,0.161,0.260,0.246,0.243,0.143,0.091,�k,2.8,�L
2021/03/20,22:20,0.181,0.162,0.261,0.247,0.242,0.143,0.090,�k,3.3,�L
2021/03/20,22:30,0.180,0.163,0.261,0.248,0.243,0.145,0.091,�k,2.2,�L
2021/03/20,22:40,0.181,0.162,0.260,0.247,0.243,0.144,0.090,�k,2.4,�L
2021/03/20,22:50,0.184,0.163,0.261,0.247,0.244,0.145,0.091,�k�k��,2.7,�L
2021/03/20,23:00,0.182,0.164,0.262,0.247,0.243,0.145,0.091,�k,2.2,�L
2021/03/20,23:10,0.184,0.165,0.260,0.248,0.244,0.147,0.093,�k�k��,1.3,�L
2021/03/20,23:20,0.184,0.163,0.259,0.247,0.244,0.146,0.094,�k��,2.0,�L
2021/03/20,23:30,0.181,0.164,0.258,0.247,0.243,0.147,0.093,�k,1.1,�L
2021/03/20,23:40,0.182,0.162,0.259,0.246,0.243,0.145,0.092,�k�k��,1.4,�L
2021/03/20,23:50,0.181,0.161,0.258,0.244,0.242,0.145,0.091,�k,0.7,�L
